FW2433 Weather Reports


time (UTC)temp
C
wind
direction
speed
KPH
gust
KPH
rain 1hr
cm
rain 24hr
cm
rain mn
cm
humidity
%
barometer
mb
20260507211548 16 143 0.0 0.0 0.00 0.00 0.00 85 1012.7
20260507210103 16 129 0.0 0.0 0.00 0.00 0.00 84 1012.7
20260507204547 16 136 0.0 1.6 0.00 0.00 0.00 82 1012.7
20260507203113 16 134 0.0 1.6 0.00 0.00 0.00 81 1012.8
20260507201550 16 123 0.0 3.2 0.00 0.00 0.00 79 1012.8
20260507200045 17 134 0.0 1.6 0.00 0.00 0.00 77 1012.7
20260507194555 17 128 0.0 1.6 0.00 0.00 0.00 76 1012.5
20260507193043 17 131 0.0 1.6 0.00 0.00 0.00 74 1012.4
20260507191546 18 152 0.0 9.7 0.00 0.00 0.00 72 1012.3
20260507190047 18 161 0.0 9.7 0.00 0.00 0.00 70 1012.1
20260507184539 18 126 0.0 6.4 0.00 0.00 0.00 69 1011.8
20260507183040 19 139 0.0 0.0 0.00 0.00 0.00 68 1011.7
20260507181541 20 119 1.6 8.0 0.00 0.00 0.00 68 1011.6
20260507180042 20 137 3.2 11.3 0.00 0.00 0.00 67 1011.4
20260507174543 21 135 4.8 11.3 0.00 0.00 0.00 65 1011.2
20260507173137 21 136 1.6 14.5 0.00 0.00 0.00 64 1010.9
20260507171541 22 117 3.2 14.5 0.00 0.00 0.00 60 1010.9
20260507170039 23 134 1.6 16.1 0.00 0.00 0.00 56 1010.8
20260507164536 23 193 1.6 11.3 0.00 0.00 0.00 49 1010.7
20260507163037 23 134 0.0 9.7 0.00 0.00 0.00 48 1010.6
20260507161541 23 121 1.6 8.0 0.00 0.00 0.00 48 1010.6
20260507160032 23 144 4.8 11.3 0.00 0.00 0.00 47 1010.7
20260507154532 24 118 0.0 9.7 0.00 0.00 0.00 46 1010.7
20260507153032 24 225 0.0 8.0 0.00 0.00 0.00 47 1010.9
20260507151531 23 128 0.0 6.4 0.00 0.00 0.00 47 1010.9
20260507150038 24 107 1.6 6.4 0.00 0.00 0.00 46 1010.9
20260507144531 24 169 1.6 11.3 0.00 0.00 0.00 46 1010.9
20260507143030 24 117 0.0 6.4 0.00 0.00 0.00 46 1011.0
20260507141542 24 218 0.0 6.4 0.00 0.00 0.00 46 1011.0
20260507140027 25 207 1.6 6.4 0.00 0.00 0.00 45 1011.1
20260507134526 24 242 1.6 12.9 0.00 0.00 0.00 45 1011.1
20260507133030 23 198 1.6 12.9 0.00 0.00 0.00 46 1011.1
20260507131521 23 121 1.6 12.9 0.00 0.00 0.00 47 1011.2
20260507130019 23 131 1.6 8.0 0.00 0.00 0.00 47 1011.2
20260507124517 23 151 0.0 8.0 0.00 0.03 0.00 46 1011.3
20260507123015 23 98 1.6 9.7 0.00 0.03 0.00 49 1011.2
20260507121515 23 121 0.0 11.3 0.00 0.03 0.00 49 1011.4
20260507120014 23 207 0.0 12.9 0.00 0.03 0.00 49 1011.5
20260507114513 23 129 1.6 6.4 0.00 0.03 0.00 50 1011.6
20260507113013 23 313 0.0 8.0 0.00 0.03 0.00 48 1011.7
20260507111509 22 134 0.0 9.7 0.00 0.03 0.00 49 1011.9
20260507110007 22 147 0.0 11.3 0.00 0.03 0.00 51 1012.0
20260507104505 22 121 0.0 4.8 0.00 0.03 0.00 51 1012.1
20260507103004 21 267 3.2 12.9 0.00 0.03 0.00 52 1012.2
20260507101502 22 294 0.0 9.7 0.00 0.03 0.00 53 1012.3
20260507100059 21 286 0.0 8.0 0.00 0.03 0.00 56 1012.4
20260507094600 21 170 0.0 9.7 0.00 0.08 0.00 57 1012.4
20260507093051 20 271 0.0 4.8 0.00 0.08 0.00 62 1012.4
20260507091549 20 320 1.6 11.3 0.00 0.08 0.00 62 1012.4
20260507090045 19 282 0.0 6.4 0.00 0.08 0.00 66 1012.4
20260507084541 18 281 1.6 12.9 0.00 0.13 0.00 67 1012.3
20260507083037 18 313 0.0 6.4 0.00 0.13 0.00 67 1012.3
20260507081538 17 279 0.0 6.4 0.00 0.13 0.00 70 1012.2
20260507080030 17 306 0.0 6.4 0.00 0.13 0.00 71 1012.1
20260507074528 17 254 1.6 9.7 0.00 0.15 0.00 70 1012.2
20260507073026 17 293 0.0 6.4 0.00 0.15 0.00 70 1012.2
20260507071525 16 282 0.0 3.2 0.00 0.15 0.00 71 1012.1
20260507070033 16 292 0.0 6.4 0.00 0.15 0.00 72 1011.9
20260507064518 16 297 0.0 6.4 0.00 0.23 0.00 73 1011.9
20260507063015 15 289 0.0 3.2 0.00 0.23 0.00 76 1011.8
20260507061513 15 231 0.0 6.4 0.00 0.23 0.00 78 1011.7
20260507060018 13 281 0.0 3.2 0.00 0.23 0.00 84 1011.5
20260507054509 12 266 0.0 3.2 0.00 0.33 0.00 88 1011.4
20260507053007 12 263 0.0 0.0 0.00 0.33 0.00 90 1011.3
20260507051505 11 263 0.0 0.0 0.00 0.33 0.00 91 1011.1
20260507050012 11 263 0.0 0.0 0.00 0.33 0.00 90 1010.9
20260507044502 11 263 0.0 0.0 0.00 0.71 0.00 89 1010.7
20260507043002 11 263 0.0 0.0 0.00 0.71 0.00 88 1010.6
20260507041559 11 263 0.0 0.0 0.00 0.71 0.00 87 1010.5
20260507040105 11 263 0.0 0.0 0.00 0.71 0.00 87 1010.3
20260507034602 11 263 0.0 1.6 0.00 0.71 0.00 86 1010.3
20260507033105 12 271 0.0 0.0 0.00 0.71 0.00 87 1010.2
20260507031600 12 271 0.0 0.0 0.00 0.71 0.00 86 1010.2
20260507030107 12 271 0.0 0.0 0.00 0.71 0.00 85 1010.2
20260507024606 12 271 0.0 1.6 0.00 0.89 0.00 86 1010.1
20260507023049 12 157 0.0 0.0 0.00 0.89 0.00 85 1010.1
20260507021554 12 155 0.0 0.0 0.00 0.89 0.00 85 1010.2
20260507020056 12 155 0.0 0.0 0.00 0.89 0.00 84 1010.2
20260507014552 12 155 0.0 0.0 0.00 1.12 0.00 83 1010.1
20260507013042 13 155 0.0 0.0 0.00 1.12 0.00 82 1009.9
20260507011546 13 155 0.0 0.0 0.00 1.12 0.00 81 1009.9
20260507010043 13 155 0.0 1.6 0.00 1.12 0.00 81 1009.8
20260507004536 13 195 0.0 0.0 0.00 1.12 0.00 81 1009.7
20260507003036 13 175 0.0 0.0 0.00 1.12 0.00 80 1009.8
20260507001536 13 173 0.0 1.6 0.00 1.12 0.00 80 1009.8
20260507000134 13 157 0.0 0.0 0.00 1.12 0.00 80 1009.8
20260506234541 13 157 0.0 1.6 0.00 1.12 0.00 79 1009.9
20260506233032 13 242 0.0 0.0 0.00 1.12 0.00 79 1009.8
20260506231533 13 243 0.0 1.6 0.00 1.12 0.00 79 1009.8
20260506230028 14 140 0.0 0.0 0.00 1.12 0.00 79 1009.7
20260506224527 14 140 0.0 0.0 0.00 1.12 0.00 78 1009.7
20260506223026 14 140 0.0 3.2 0.00 1.12 0.00 79 1009.8
20260506221523 15 146 0.0 0.0 0.00 1.12 0.00 79 1009.8
20260506220021 15 146 0.0 3.2 0.00 1.12 0.00 77 1009.9
20260506214520 15 138 0.0 0.0 0.00 1.12 1.12 77 1009.6
20260506213019 15 138 0.0 3.2 0.00 1.12 1.12 76 1009.6